Wiley Ford, WV

2:09 AM EST on February 10, 2016 (GMT -0500)
Greater Cumberland Regional

Weather History for KCBE - March, 2013

Change the Weather History Date:

Friday, March 1, 2013

  Actual Average (KMRB) Record (KMRB)
Temperature  
Mean Temperature 36 °F 37 °F  
Max Temperature 41 °F 47 °F 79 °F (1972)
Min Temperature 32 °F 27 °F 4 °F (1934)
Degree Days  
Heating Degree Days 28 28  
Month to date heating degree days 28  
Since 1 July heating degree days 3984  
Cooling Degree Days 0 0  
Month to date cooling degree days 0  
Year to date cooling degree days 0  
Moisture  
Dew Point 27 °F    
Average Humidity 73    
Maximum Humidity 87    
Minimum Humidity 57    
Precipitation  
Precipitation 0.00 in 0.09 in 1.34 in (1954)
Month to date precipitation 0.09  
Year to date precipitation 4.87  
Sea Level Pressure  
Sea Level Pressure 29.88 in    
Wind  
Wind Speed 8 mph (NW)    
Max Wind Speed 15 mph    
Max Gust Speed 23 mph    
Visibility 10 miles    
Events      
T = Trace of Precipitation, MM = Missing Value Source: NWS Daily Summary

Daily Weather History Graph

Daily Weather History Graph

Search for Another Location

Airport or City:

Trip Planner

Search our weather history database for the weather conditions in past years. The results will help you decide how hot, cold, wet, or windy it might be!

Date:

Astronomy

Mar. 01, 2013 Rise Set
Actual Time 6:47 AM EST 6:07 PM EST
Civil Twilight 6:20 AM EST 6:34 PM EST
Nautical Twilight 5:49 AM EST 7:05 PM EST
Astronomical Twilight 5:18 AM EST 7:36 PM EST
Moon 10:37 PM EST (3/1) 8:34 AM EST (3/1)
Length of Visible Light 12h 13m
Length of Day
11h 19m
Waning Gibbous, 83% of the Moon is Illuminated
Mar 1
Waning Gibbous
Mar 4
Last Quarter
Mar 11
New
Mar 19
First Quarter
Mar 27
Full

Hourly Weather History & Observations

Time (EST) Temp. Windchill Dew Point Humidity Pressure Visibility Wind Dir Wind Speed Gust Speed Precip Events Conditions
12:11 AM 37.4 °F 30.8 °F 30.2 °F 75% 29.80 in 10.0 mi NW 9.2 mph 16.1 mph N/A   Overcast
12:31 AM 37.4 °F 30.8 °F 30.2 °F 75% 29.80 in 10.0 mi WNW 9.2 mph 18.4 mph N/A   Overcast
12:51 AM 37.4 °F 33.8 °F 30.2 °F 75% 29.81 in 10.0 mi WNW 4.6 mph - N/A   Overcast
1:11 AM 35.6 °F 29.9 °F 30.2 °F 81% 29.81 in 10.0 mi NW 6.9 mph 19.6 mph N/A   Overcast
1:31 AM 35.6 °F 29.9 °F 30.2 °F 81% 29.81 in 10.0 mi NNW 6.9 mph 16.1 mph N/A   Mostly Cloudy
1:51 AM 35.6 °F 30.7 °F 30.2 °F 81% 29.82 in 10.0 mi NNW 5.8 mph - N/A   Overcast
2:11 AM 35.6 °F 29.9 °F 30.2 °F 81% 29.82 in 10.0 mi West 6.9 mph - N/A   Overcast
2:31 AM 35.6 °F 28.0 °F 30.2 °F 81% 29.82 in 10.0 mi West 10.4 mph - N/A   Mostly Cloudy
2:52 AM 35.6 °F 30.7 °F 30.2 °F 81% 29.82 in 10.0 mi North 5.8 mph - N/A   Mostly Cloudy
3:12 AM 35.6 °F 30.7 °F 28.4 °F 75% 29.82 in 10.0 mi WNW 5.8 mph 16.1 mph N/A   Overcast
3:32 AM 35.6 °F 29.2 °F 28.4 °F 75% 29.82 in 10.0 mi NW 8.1 mph 19.6 mph N/A   Overcast
3:52 AM 35.6 °F 29.2 °F 28.4 °F 75% 29.82 in 10.0 mi NNW 8.1 mph - N/A   Overcast
4:12 AM 35.6 °F 28.0 °F 30.2 °F 81% 29.82 in 10.0 mi NNW 10.4 mph 17.3 mph N/A   Overcast
4:32 AM 35.6 °F 29.2 °F 30.2 °F 81% 29.82 in 10.0 mi NW 8.1 mph - N/A   Overcast
4:52 AM 33.8 °F 26.4 °F 30.2 °F 87% 29.83 in 10.0 mi WNW 9.2 mph - N/A   Overcast
5:12 AM 33.8 °F 29.6 °F 30.2 °F 87% 29.84 in 10.0 mi WNW 4.6 mph - N/A   Overcast
5:32 AM 33.8 °F 25.8 °F 30.2 °F 87% 29.84 in 10.0 mi West 10.4 mph - N/A   Overcast
5:52 AM 33.8 °F 27.0 °F 28.4 °F 81% 29.84 in 10.0 mi NW 8.1 mph - N/A   Overcast
6:12 AM 33.8 °F 26.4 °F 28.4 °F 81% 29.85 in 10.0 mi WNW 9.2 mph - N/A   Overcast
6:32 AM 33.8 °F 25.3 °F 26.6 °F 75% 29.85 in 10.0 mi NW 11.5 mph 18.4 mph N/A   Overcast
6:52 AM 33.8 °F 28.6 °F 28.4 °F 81% 29.85 in 10.0 mi NW 5.8 mph - N/A   Overcast
7:12 AM 33.8 °F 24.8 °F 28.4 °F 81% 29.85 in 10.0 mi NW 12.7 mph 19.6 mph N/A   Overcast
7:32 AM 33.8 °F 25.8 °F 28.4 °F 81% 29.86 in 10.0 mi NW 10.4 mph - N/A   Overcast
7:52 AM 33.8 °F 27.7 °F 28.4 °F 81% 29.88 in 10.0 mi WNW 6.9 mph - N/A   Overcast
8:12 AM 33.8 °F 30.8 °F 28.4 °F 81% 29.88 in 10.0 mi NW 3.5 mph - N/A   Overcast
8:32 AM 33.8 °F 27.7 °F 28.4 °F 81% 29.89 in 10.0 mi West 6.9 mph - N/A   Overcast
8:52 AM 33.8 °F 27.7 °F 30.2 °F 87% 29.89 in 10.0 mi NW 6.9 mph - N/A   Overcast
9:12 AM 33.8 °F - 30.2 °F 87% 29.89 in 10.0 mi Calm Calm - N/A   Scattered Clouds
9:32 AM 35.6 °F - 30.2 °F 81% 29.89 in 10.0 mi Calm Calm - N/A   Scattered Clouds
9:52 AM 35.6 °F 29.2 °F 30.2 °F 81% 29.89 in 10.0 mi WNW 8.1 mph - N/A   Scattered Clouds
10:12 AM 35.6 °F 29.9 °F 28.4 °F 75% 29.88 in 10.0 mi NNW 6.9 mph - N/A   Scattered Clouds
10:32 AM 35.6 °F 29.2 °F 28.4 °F 75% 29.88 in 10.0 mi NNW 8.1 mph - N/A   Clear
10:52 AM 35.6 °F 29.9 °F 28.4 °F 75% 29.88 in 10.0 mi NNW 6.9 mph - N/A   Clear
11:13 AM 37.4 °F 28.9 °F 26.6 °F 65% 29.88 in 10.0 mi North 13.8 mph 19.6 mph N/A   Scattered Clouds
11:33 AM 37.4 °F 30.3 °F 26.6 °F 65% 29.89 in 10.0 mi NNW 10.4 mph - N/A   Scattered Clouds
11:53 AM 37.4 °F 32.8 °F 28.4 °F 70% 29.89 in 10.0 mi North 5.8 mph - N/A   Scattered Clouds
12:13 PM 35.6 °F 28.6 °F 26.6 °F 70% 29.89 in 10.0 mi NW 9.2 mph - N/A   Mostly Cloudy
12:33 PM 37.4 °F 29.8 °F 26.6 °F 65% 29.90 in 10.0 mi NW 11.5 mph 20.7 mph N/A   Scattered Clouds
12:53 PM 35.6 °F 29.2 °F 26.6 °F 70% 29.90 in 10.0 mi WNW 8.1 mph 16.1 mph N/A   Mostly Cloudy
1:13 PM 35.6 °F 29.9 °F 26.6 °F 70% 29.89 in 10.0 mi NNW 6.9 mph 16.1 mph N/A   Scattered Clouds
1:33 PM 35.6 °F 29.2 °F 26.6 °F 70% 29.88 in 10.0 mi NW 8.1 mph - N/A   Scattered Clouds
1:53 PM 35.6 °F 29.9 °F 26.6 °F 70% 29.88 in 10.0 mi WNW 6.9 mph 16.1 mph N/A   Clear
2:13 PM 37.4 °F 33.8 °F 26.6 °F 65% 29.87 in 10.0 mi West 4.6 mph - N/A   Scattered Clouds
2:33 PM 41.0 °F 37.1 °F 26.6 °F 57% 29.87 in 10.0 mi West 5.8 mph - N/A   Scattered Clouds
2:53 PM 39.2 °F 31.6 °F 26.6 °F 61% 29.87 in 10.0 mi NNW 12.7 mph 21.9 mph N/A   Scattered Clouds
3:13 PM 37.4 °F 30.8 °F 24.8 °F 60% 29.87 in 10.0 mi WNW 9.2 mph 23.0 mph N/A   Scattered Clouds
3:33 PM 37.4 °F 30.3 °F 24.8 °F 60% 29.87 in 10.0 mi NW 10.4 mph 17.3 mph N/A   Scattered Clouds
3:53 PM 37.4 °F 28.9 °F 24.8 °F 60% 29.87 in 10.0 mi NNW 13.8 mph 18.4 mph N/A   Mostly Cloudy
4:13 PM 37.4 °F 30.3 °F 24.8 °F 60% 29.88 in 10.0 mi NNW 10.4 mph 19.6 mph N/A   Mostly Cloudy
4:33 PM 37.4 °F 28.9 °F 24.8 °F 60% 29.88 in 10.0 mi NNW 13.8 mph 19.6 mph N/A   Mostly Cloudy
4:53 PM 35.6 °F 27.1 °F 24.8 °F 65% 29.89 in 10.0 mi NW 12.7 mph 21.9 mph N/A   Scattered Clouds
5:13 PM 35.6 °F 29.2 °F 24.8 °F 65% 29.90 in 10.0 mi NNW 8.1 mph 18.4 mph N/A   Mostly Cloudy
5:33 PM 33.8 °F 27.0 °F 26.6 °F 75% 29.90 in 10.0 mi WNW 8.1 mph - N/A   Overcast
5:53 PM 33.8 °F 25.3 °F 24.8 °F 70% 29.91 in 10.0 mi NNW 11.5 mph 18.4 mph N/A   Mostly Cloudy
6:13 PM 33.8 °F 24.8 °F 24.8 °F 70% 29.92 in 10.0 mi NW 12.7 mph 18.4 mph N/A   Mostly Cloudy
6:33 PM 33.8 °F 24.3 °F 23.0 °F 65% 29.92 in 10.0 mi NW 13.8 mph 19.6 mph N/A   Scattered Clouds
6:53 PM 32.0 °F 23.6 °F 23.0 °F 69% 29.92 in 10.0 mi NW 10.4 mph 20.7 mph N/A   Scattered Clouds
7:13 PM 32.0 °F 21.6 °F 23.0 °F 69% 29.93 in 10.0 mi NNW 15.0 mph 20.7 mph N/A   Mostly Cloudy
7:33 PM 32.0 °F 23.6 °F 23.0 °F 69% 29.93 in 10.0 mi North 10.4 mph 17.3 mph N/A   Overcast
7:54 PM 32.0 °F 24.8 °F 23.0 °F 69% 29.94 in 10.0 mi North 8.1 mph 21.9 mph N/A   Overcast
8:34 PM 32.0 °F 25.6 °F 24.8 °F 75% 29.95 in 10.0 mi NNW 6.9 mph 16.1 mph N/A   Overcast
8:54 PM 32.0 °F 24.8 °F 24.8 °F 75% 29.95 in 10.0 mi North 8.1 mph - N/A   Overcast
9:14 PM 32.0 °F 23.0 °F 23.0 °F 69% 29.95 in 10.0 mi NNW 11.5 mph 17.3 mph N/A   Overcast
9:34 PM 32.0 °F 24.8 °F 23.0 °F 69% 29.96 in 10.0 mi NNW 8.1 mph 17.3 mph N/A   Overcast
9:54 PM 32.0 °F 27.5 °F 23.0 °F 69% 29.96 in 10.0 mi NW 4.6 mph - N/A   Overcast
10:14 PM 32.0 °F 24.8 °F 23.0 °F 69% 29.96 in 10.0 mi NW 8.1 mph 16.1 mph N/A   Overcast
10:34 PM 32.0 °F 22.5 °F 23.0 °F 69% 29.96 in 10.0 mi WNW 12.7 mph 17.3 mph N/A   Overcast
10:54 PM 32.0 °F 22.1 °F 23.0 °F 69% 29.96 in 10.0 mi NW 13.8 mph 17.3 mph N/A   Overcast
11:14 PM 32.0 °F 23.0 °F 23.0 °F 69% 29.96 in 10.0 mi WNW 11.5 mph 16.1 mph N/A   Overcast
11:34 PM 32.0 °F 23.0 °F 23.0 °F 69% 29.96 in 10.0 mi WNW 11.5 mph - N/A   Overcast
11:54 PM 32.0 °F 24.8 °F 23.0 °F 69% 29.96 in 10.0 mi WNW 8.1 mph 16.1 mph N/A   Mostly Cloudy